{"data":{"norad_id":54674,"intl_designator":"2022-166AJ","name":"ONEWEB-0611","alt_names":[],"object_type":"PAYLOAD","status":"ACTIVE","operator":null,"country":"UK","launch_date":"2022-12-08","launch_site_code":"AFETR","launch_vehicle":null,"mission":null,"orbit_class":"UNKNOWN","rcs_meters":null,"size_class":null,"mass_kg":null,"dimensions":null,"purposes":["comms"],"wikipedia_slug":null,"has_3d_model":false,"image_url":null,"decayed_at":null,"tle_current":{"epoch":"2026-09-18T08:44:05.728416Z","epoch_age_seconds":206583,"freshness":"STALE","line1":"1 54674U 22166AJ  26261.36395519 -.00000081  00000+0 -22766-3 0  9997","line2":"2 54674  87.9275 225.4300 0001830  79.4250 280.7090 13.21827286183751","mean_motion":13.21827286,"eccentricity":0.000183,"inclination_deg":87.9275,"raan_deg":225.43,"arg_perigee_deg":79.425,"mean_anomaly_deg":280.709,"bstar":-0.00022766,"rev_number":18375,"period_min":108.94010248174,"perigee_km":1176.365740598,"apogee_km":1179.1311946791,"semimajor_km":7555.8854676386,"source":"CELESTRAK","updated_at":"2026-09-20T09:00:44.747979Z"}}}